Regional Weather Roundup
Issued by NWS

Home | Current Version | Previous Version | Text Only | Print | Product List | Glossary On
Versions: 1 2 3 4 5 6 7 8 9 10 11 12 13 14 15 16 17 18 19 20 21 22 23 24 25 26 27 28 29 30 31 32 33 34 35 36 37 38 39 40 41 42 43 44 45 46 47 48 49 50
000
ASHW40 PHFO 310012
RWRHI

WEATHER ROUNDUP FOR HAWAII
NATIONAL WEATHER SERVICE HONOLULU HI
200 PM HST THU JUL 30 2015

THIS IS AN AUTOMATED REPORT THAT HAS NOT BEEN QUALITY CONTROLLED.

NOTE..."FAIR" INDICATES FEW OR NO CLOUDS BELOW 12,000 FEET WITH NO
SIGNIFICANT WEATHER AND/OR OBSTRUCTIONS TO VISIBILITY.

* - THESE SITES REPORT LIMITED FIELDS

HIZ001>004-310100-
KAUAI-NIIHAU-

CITY           SKY/WX    TMP DP  RH WIND       PRES   REMARKS
LIHUE APT      PTSUNNY   87  72  60 NE12      30.01F HX  93
PORT ALLEN*    NOT AVBL
POIPU*         NOT AVBL
PRINCEVILLE*   NOT AVBL
KOKOLE POINT*  NOT AVBL
MOLOAA DAIRY*  NOT AVBL
WAIMEA HTS*    NOT AVBL
PUU OPAE*      NOT AVBL
PUU LUA*       NOT AVBL
MAKAHA RIDGE*  NOT AVBL
$$

HIZ005>011-310100-
OAHU-

CITY           SKY/WX    TMP DP  RH WIND       PRES   REMARKS
HONOLULU       PTSUNNY   91  71  51 NE16      29.96F HX  97
KALAELOA       PTSUNNY   89  69  51 VRB3      29.97F HX  93
KANEOHE MCB    FAIR      84  73  69 NE10G18   29.95F HX  90
WHEELER FIELD  MOSUNNY   84  70  61 E10       30.01F
BELLOWS*       NOT AVBL
KAHUKU*        NOT AVBL
WHEELER*       NOT AVBL
WAIANAE HARBOR NOT AVBL
DILLINGHAM*    NOT AVBL
KAHUKU TRN*    NOT AVBL
KAWAILOA*      NOT AVBL
KII*           NOT AVBL
MAKUA RANGE*   NOT AVBL
OAHU FOREST NW NOT AVBL
SCHOFIELD BRK* NOT AVBL
SCHOFIELD S*   NOT AVBL
WAIANAE VLY*   NOT AVBL
KUAOKALA*      NOT AVBL
HONOULIUULI*   NOT AVBL
MOKUOLOE IS*   NOT AVBL
PALEHUA*       NOT AVBL
WAIAWA PHB*    NOT AVBL
$$

HIZ012>013-310100-
MOLOKAI-

CITY           SKY/WX    TMP DP  RH WIND       PRES   REMARKS
MOLOKAI AIRPT  FAIR      84  72  67 NE17G31   29.96F
KALAUPAPA      NOT AVBL
MAKAPULAPAI*   NOT AVBL
MOLOKAI 1*     NOT AVBL
PUU ALII*      NOT AVBL
$$

HIZ016-310100-
KAHOOLAWE-

CITY           SKY/WX    TMP DP  RH WIND       PRES   REMARKS
KAHOOLAWE*     NOT AVBL
HAKIOAWA*      NOT AVBL
HONOKANAIA*    NOT AVBL
KANELOA*       NOT AVBL
KEALIALALO*    NOT AVBL
LUA MAKIKA*    NOT AVBL
$$

HIZ014>015-310100-
LANAI-

CITY           SKY/WX    TMP DP  RH WIND       PRES   REMARKS
LANAI CITY     CLOUDY    80  69  69 NW8       30.01F
LANAI 1*       NOT AVBL
$$

HIZ017>028-310100-
MAUI-

CITY           SKY/WX    TMP DP  RH WIND       PRES   REMARKS
KAHULUI        FAIR      89  71  55 E20G37    29.93F HX  95
KAPALUA-W MAUI MOSUNNY   88  70  55 NE17G28   29.96  HX  92
HANA AIRPORT   NOT AVBL
HANA*          NOT AVBL
HALEAKALA SUMM NOT AVBL
MAALAEA BAY*   NOT AVBL
HALEAKALA*     NOT AVBL
KAUPO GAP*     NOT AVBL
KULA 1*        NOT AVBL
$$

HIZ023>026-310100-
BIG ISLAND OF HAWAII COAST AND LOWER SLOPES-

CITY           SKY/WX    TMP DP  RH WIND       PRES   REMARKS
KAILUA KONA    CLOUDY    87  72  60 S9        29.90F HX  93
HILO           LGT RAIN  79  76  90 S5        29.97F FOG
HONOKAA*       NOT AVBL
KAWAIHAE MWT*  NOT AVBL
KAWAIHAE*      NOT AVBL
SOUTH POINT*   NOT AVBL
UPOLU AIRPORT* NOT AVBL
KAMUELA*       NOT AVBL
HAKALAU*       NOT AVBL
KALOKO-HONOKO* NOT AVBL
PALI 2*        NOT AVBL
KEALAKOMO*     NOT AVBL
KAUPULEHU*     NOT AVBL
KAPAPALA*      NOT AVBL
LOWER KAHUKU*  NOT AVBL
PUHE CS*       NOT AVBL
PUHO CS*       NOT AVBL
PTA KEAMUKU*   NOT AVBL
WAIKOLOA*      NOT AVBL
$$

HIZ027>028-310100-
BIG ISLAND OF HAWAII INTERIOR AND SUMMMITS-

CITY           SKY/WX    TMP DP  RH WIND       PRES   REMARKS
BRADSHAW FIELD FAIR      72  61  68 W13G21    30.29F
MK VISITOR CEN NOT AVBL
MAUNA KEA*     NOT AVBL
MAUNA LOA*     NOT AVBL
MAUNA LOA 1*   NOT AVBL
PTA KIPUKA*    NOT AVBL
PTA RANGE 17*  NOT AVBL
PTA WEST*      NOT AVBL
NENE CABIN*    NOT AVBL
AHUMOA*        NOT AVBL
PTA PORTABLE*  NOT AVBL
PUU MALI*      NOT AVBL
$$

HIC003-310100-
NORTHWEST ISLANDS-

CITY           SKY/WX    TMP DP  RH WIND       PRES   REMARKS
MIDWAY ISLAND  PTSUNNY   82  72  69 E15       30.02F
MIDWAY NOS*    NOT AVBL
FRENCH FRIGATE NOT AVBL
$$

PHZ110>124-180-310100-
BUOY REPORTS

STATION/POSITION TIME  TEMP    WIND        PRES    WAVE   SWELL
                       AIR SEA DIR/SP/G            HT/PER HT/DIR
                 (UTC) (F)     (DEG/KT/KT) (MB)    (FT/S) (FT/D)
BUOY 51001       NOT AVBL
BUOY 51101       2350   81 81  110/ 12/ 16 1016.2F   5/ 6   5/130
BUOY 51100       NOT AVBL
BUOY 51002       2350   81 82   70/ 17/ 19 1011.4F   7/ 8   3/ 80
BUOY 51003       2250   82 83   80/ 14/ 16 1014.6    6/ 7   3
BUOY 51004       2350   81 81   70/ 16/ 19 1012.1F   7/ 8   5/ 90
BARBERS PT BUOY  NOT AVBL
WAIMEA BAY BUOY  2304      81                N/A     3/ 7
KAILUA BAY BUOY  2311      81                N/A     5/ 6   2/110
LANAI BUOY       NOT AVBL
BARBERS PT 2     0003      82                N/A     4/13   2/200
PAUWELA MAUI     2307      80                N/A     5/ 7
HILO             NOT AVBL
KANEOHE BAY BUOY 2303      80                N/A     4/ 7
HANALEI KAUAI    0001      81                N/A     4/ 6   2/ 70
KAHULUI HARBOR   2300   84 82   50/ 19/ 23 1013.7F
HONOLULU HARBOR  2300   87 82   60/  6/ 14 1014.9F
KILO NALU        NOT AVBL
HILO HARBOR      2300   80 77   30/  8/  9 1014.8F
MOKUOLOE         2300      84              1015.7
NAWILIWILI       2300   81 83   60/ 11/ 13 1016.2F
WHOTS BUOY       NOT AVBL
BUOY 51028       NOT AVBL
$$

......................KEY........................................
  SKY/WX - SKY CONDITIONS/PRESENT WEATHER
  TMP    - TEMPERATURE IN FAHRENHEIT
  DWPT   - DEWPOINT IN FAHRENHEIT
  RH     - RELATIVE HUMIDITY IN PERCENT
  WIND   - DIRECTION AND SPEED /MPH FOR ISLANDS...KTS FOR BUOYS/
  PRES   - MEAN SEA LEVEL PRESSURE IN INCHES OF HG
  VSB    - VISIBILITY IN MILES
  HX     - HEAT INDEX
  WCI    - WIND CHILL INDEX
  VRB    - VARIABLE WIND DIRECTION
  N/A    - NOT AVAILABLE


USA.gov is the U.S. government's official web portal to all federal, state and local government web resources and services.